TimePDT,TemperatureF,Dew PointF,Humidity,Sea Level PressureIn,VisibilityMPH,Wind Direction,Wind SpeedMPH,Gust SpeedMPH,PrecipitationIn,Events,Conditions,WindDirDegrees,DateUTC
12:15 AM,55.4,37.4,51,29.89,10.0,NW,9.2,-,N/A,,Clear,320,2013-09-17 07:15:00
12:35 AM,55.4,35.6,47,29.88,10.0,NNW,8.1,-,N/A,,Clear,330,2013-09-17 07:35:00
12:55 AM,55.4,35.6,47,29.87,10.0,NNW,8.1,-,N/A,,Clear,330,2013-09-17 07:55:00
1:15 AM,53.6,35.6,51,29.87,10.0,NW,6.9,-,N/A,,Clear,320,2013-09-17 08:15:00
1:35 AM,53.6,35.6,51,29.86,10.0,North,9.2,-,N/A,,Clear,350,2013-09-17 08:35:00
1:55 AM,55.4,37.4,51,29.86,10.0,NNW,10.4,-,N/A,,Clear,330,2013-09-17 08:55:00
2:15 AM,55.4,37.4,51,29.85,10.0,NW,11.5,-,N/A,,Clear,320,2013-09-17 09:15:00
2:35 AM,53.6,37.4,54,29.84,10.0,NW,9.2,-,N/A,,Clear,320,2013-09-17 09:35:00
2:55 AM,53.6,35.6,51,29.83,10.0,NW,9.2,-,N/A,,Clear,310,2013-09-17 09:55:00
3:15 AM,53.6,35.6,51,29.83,10.0,NW,9.2,-,N/A,,Clear,310,2013-09-17 10:15:00
3:35 AM,53.6,35.6,51,29.83,10.0,NW,9.2,-,N/A,,Clear,320,2013-09-17 10:35:00
3:55 AM,53.6,35.6,51,29.82,10.0,NNW,10.4,-,N/A,,Clear,330,2013-09-17 10:55:00
4:15 AM,53.6,37.4,54,29.82,10.0,NW,9.2,-,N/A,,Clear,320,2013-09-17 11:15:00
4:35 AM,51.8,35.6,54,29.83,10.0,SSE,3.5,-,N/A,,Clear,150,2013-09-17 11:35:00
4:55 AM,50.0,35.6,58,29.82,10.0,SE,3.5,-,N/A,,Clear,140,2013-09-17 11:55:00
5:15 AM,46.4,33.8,62,29.82,10.0,NW,4.6,-,N/A,,Clear,310,2013-09-17 12:15:00
5:35 AM,48.2,33.8,58,29.81,10.0,NW,6.9,-,N/A,,Clear,320,2013-09-17 12:35:00
5:55 AM,48.2,33.8,58,29.81,10.0,North,11.5,-,N/A,,Clear,350,2013-09-17 12:55:00
6:15 AM,50.0,35.6,58,29.80,10.0,NNW,11.5,-,N/A,,Clear,340,2013-09-17 13:15:00
6:35 AM,50.0,35.6,58,29.80,10.0,NNW,10.4,-,N/A,,Clear,340,2013-09-17 13:35:00
6:55 AM,48.2,33.8,58,29.80,10.0,NW,9.2,-,N/A,,Clear,320,2013-09-17 13:55:00
7:15 AM,50.0,35.6,58,29.80,10.0,NW,4.6,-,N/A,,Clear,320,2013-09-17 14:15:00
7:35 AM,50.0,35.6,58,29.79,10.0,SSW,4.6,-,N/A,,Clear,210,2013-09-17 14:35:00
7:55 AM,50.0,35.6,58,29.78,10.0,Calm,Calm,-,N/A,,Clear,0,2013-09-17 14:55:00
8:15 AM,51.8,35.6,54,29.77,10.0,Calm,Calm,-,N/A,,Clear,0,2013-09-17 15:15:00
8:35 AM,53.6,37.4,54,29.77,10.0,West,4.6,-,N/A,,Clear,280,2013-09-17 15:35:00
8:55 AM,55.4,39.2,54,29.78,10.0,WNW,19.6,23.0,N/A,,Scattered Clouds,290,2013-09-17 15:55:00
9:15 AM,59.0,39.2,48,29.78,10.0,West,23.0,26.5,N/A,,Mostly Cloudy,270,2013-09-17 16:15:00
9:35 AM,57.2,37.4,48,29.79,10.0,NW,17.3,-,N/A,,Overcast,310,2013-09-17 16:35:00
9:55 AM,55.4,37.4,51,29.78,10.0,WNW,20.7,24.2,N/A,,Overcast,300,2013-09-17 16:55:00
10:15 AM,57.2,39.2,51,29.77,10.0,WNW,10.4,19.6,N/A,,Overcast,300,2013-09-17 17:15:00
10:35 AM,57.2,39.2,51,29.77,10.0,East,5.8,-,N/A,,Overcast,80,2013-09-17 17:35:00
10:55 AM,59.0,39.2,48,29.77,10.0,Calm,Calm,-,N/A,,Overcast,0,2013-09-17 17:55:00
11:15 AM,60.8,39.2,45,29.76,10.0,NNW,6.9,-,N/A,,Mostly Cloudy,340,2013-09-17 18:15:00
11:35 AM,62.6,39.2,42,29.75,10.0,NNW,8.1,-,N/A,,Mostly Cloudy,340,2013-09-17 18:35:00
11:55 AM,62.6,41.0,45,29.74,10.0,NNW,10.4,-,N/A,,Scattered Clouds,330,2013-09-17 18:55:00
12:15 PM,62.6,41.0,45,29.74,10.0,WNW,12.7,16.1,N/A,,Mostly Cloudy,290,2013-09-17 19:15:00
12:35 PM,62.6,39.2,42,29.78,10.0,West,20.7,28.8,N/A,,Overcast,280,2013-09-17 19:35:00
12:55 PM,60.8,39.2,45,29.76,10.0,WNW,23.0,28.8,N/A,,Overcast,300,2013-09-17 19:55:00
1:15 PM,59.0,39.2,48,29.75,10.0,WNW,20.7,25.3,N/A,,Overcast,300,2013-09-17 20:15:00
1:35 PM,60.8,41.0,48,29.75,10.0,WNW,21.9,26.5,N/A,,Overcast,300,2013-09-17 20:35:00
1:55 PM,59.0,39.2,48,29.75,10.0,NW,18.4,28.8,N/A,,Overcast,310,2013-09-17 20:55:00
2:15 PM,57.2,39.2,51,29.76,10.0,NW,20.7,25.3,N/A,,Overcast,310,2013-09-17 21:15:00
2:35 PM,57.2,39.2,51,29.76,10.0,NW,17.3,-,N/A,,Overcast,310,2013-09-17 21:35:00
2:55 PM,57.2,39.2,51,29.75,10.0,NW,15.0,-,N/A,,Overcast,310,2013-09-17 21:55:00
3:15 PM,55.4,39.2,54,29.78,10.0,WNW,15.0,-,N/A,Thunderstorm,Overcast,290,2013-09-17 22:15:00
3:35 PM,53.6,39.2,58,29.78,8.0,NW,17.3,-,0.02,,Overcast,310,2013-09-17 22:35:00
3:55 PM,53.6,39.2,58,29.78,8.0,NNW,11.5,-,0.07,,Mostly Cloudy,330,2013-09-17 22:55:00
4:15 PM,53.6,41.0,62,29.79,10.0,NW,8.1,-,0.02,,Mostly Cloudy,320,2013-09-17 23:15:00
4:35 PM,55.4,42.8,63,29.79,10.0,NW,9.2,-,0.02,,Overcast,320,2013-09-17 23:35:00
4:55 PM,55.4,42.8,63,29.80,10.0,NNE,5.8,-,0.02,,Overcast,20,2013-09-17 23:55:00
5:15 PM,55.4,41.0,58,29.80,10.0,Calm,Calm,-,N/A,,Overcast,0,2013-09-18 00:15:00
5:35 PM,55.4,41.0,58,29.81,10.0,East,3.5,-,N/A,,Overcast,80,2013-09-18 00:35:00
5:55 PM,55.4,42.8,63,29.82,10.0,Calm,Calm,-,N/A,,Overcast,0,2013-09-18 00:55:00
6:15 PM,55.4,41.0,58,29.82,10.0,North,5.8,-,N/A,,Overcast,10,2013-09-18 01:15:00
6:35 PM,55.4,41.0,58,29.82,10.0,North,4.6,-,N/A,,Overcast,10,2013-09-18 01:35:00
6:55 PM,55.4,41.0,58,29.82,10.0,WNW,4.6,-,N/A,,Overcast,290,2013-09-18 01:55:00
7:15 PM,55.4,39.2,54,29.82,10.0,NNW,4.6,-,N/A,,Overcast,330,2013-09-18 02:15:00
7:35 PM,53.6,39.2,58,29.83,10.0,Calm,Calm,-,N/A,,Overcast,0,2013-09-18 02:35:00
7:55 PM,53.6,39.2,58,29.84,10.0,Calm,Calm,-,N/A,,Overcast,0,2013-09-18 02:55:00
8:15 PM,53.6,41.0,62,29.84,10.0,Calm,Calm,-,N/A,,Overcast,0,2013-09-18 03:15:00
8:35 PM,53.6,39.2,58,29.85,10.0,ESE,4.6,-,N/A,,Mostly Cloudy,110,2013-09-18 03:35:00
8:55 PM,51.8,39.2,62,29.85,10.0,Calm,Calm,-,N/A,,Mostly Cloudy,0,2013-09-18 03:55:00
9:15 PM,53.6,39.2,58,29.86,10.0,Calm,Calm,-,N/A,,Mostly Cloudy,0,2013-09-18 04:15:00
9:35 PM,53.6,37.4,54,29.87,10.0,NW,9.2,-,N/A,,Partly Cloudy,320,2013-09-18 04:35:00
9:55 PM,53.6,35.6,51,29.87,10.0,WNW,13.8,17.3,N/A,,Clear,300,2013-09-18 04:55:00
10:15 PM,53.6,35.6,51,29.88,10.0,WNW,18.4,26.5,N/A,,Scattered Clouds,300,2013-09-18 05:15:00
10:35 PM,51.8,33.8,50,29.88,10.0,WNW,15.0,19.6,N/A,,Mostly Cloudy,290,2013-09-18 05:35:00
10:55 PM,51.8,33.8,50,29.89,10.0,NW,9.2,18.4,N/A,,Mostly Cloudy,320,2013-09-18 05:55:00
11:15 PM,51.8,33.8,50,29.89,10.0,NW,12.7,-,N/A,,Mostly Cloudy,320,2013-09-18 06:15:00
11:35 PM,51.8,33.8,50,29.90,10.0,NNW,10.4,-,N/A,,Overcast,330,2013-09-18 06:35:00
11:55 PM,51.8,33.8,50,29.90,10.0,NW,8.1,17.3,N/A,,Overcast,320,2013-09-18 06:55:00